Location: Fontevrault
(47.1823°N, 0.0493°E)
Time: 17:15:57
(UTC+00:00)

Cosmos 1459 Rocket - Pass Details

Date: 23 October 2021
Orbit: 936 x 1000 km, 83.0° (Epoch: 27 November)

Event Time Altitude Azimuth Distance (km) Brightness Sun altitude
Rises 17:54:33 0° 132° (SE) 3,660 6.6 -10.3°
Enters shadow 17:56:50 - 120° (ESE) 3,027 6.1 -10.7°
Exits shadow 18:01:04 15° 82° (E) 2,372 5.3 -11.4°
Maximum altitude 18:01:29 15° 78° (ENE) 2,366 5.4 -11.5°
Drops below altitude 10° 18:04:40 10° 46° (NE) 2,692 5.9 -12.0°
Sets 18:08:19 0° 24° (NNE) 3,631 6.7 -12.6°
